Flag for United Kingdom Weather past 2 weeks in Bournemouth, England, United Kingdom

Now
45 °F

Drizzle. Fog.


Feels Like: 38 °F
Forecast: 44 / 51 °F
Wind: 14 mph from Southwest

Location: Bournemouth Airport

Current Time: Feb 28, 2015 at 6:09:54 AM

Latest Report: Feb 28, 2015 at 5:50 AM


Visibility: 2 mi

Pressure: 29.89 "Hg

Humidity: 100%

Dew point: 45 °F

Location of BournemouthLocation

Historic Weather in Bournemouth — Graph

°F

Bournemouth temperature yesterday

Maximum temperature yesterday: 48 °F (at 12:50 PM)
Minimum temperature yesterday: 27 °F (at 5:50 AM)
Average temperature yesterday: 41 °F

Past Weeks' High & Low Weather Summary

 TemperatureHumidityPressure
High55 °F (Feb 25, 2:50 PM)100% (Feb 13, 9:50 PM)30.77 "Hg (Feb 13, 9:50 PM)
Low23 °F (Feb 18, 7:50 AM)50% (Feb 24, 2:20 PM)29.30 "Hg (Feb 23, 2:50 PM)
Average43 °F84%29.90 "Hg
* Reported Feb 13 4:50 AM — Feb 28 4:50 AM, Bournemouth, Weather by CustomWeather, © 2015

Note: Actual official high and low records may vary slightly from our data, if they occured in-between our weather recording intervals... More about our weather records

Advertising

Bournemouth weather history for previous 24 hours

 ConditionsComfort  
Time TempWeatherWind HumidityBarometerVisibility
4:50 AM
Sat, Feb 28
45 °FPassing clouds.13 mph93%29.92 "Hg4 mi
4:20 AM45 °FPassing clouds.13 mph93%29.92 "Hg4 mi
3:50 AM46 °FPassing clouds.14 mph82%29.92 "Hg6 mi
3:20 AM45 °FPassing clouds.15 mph93%29.95 "Hg4 mi
2:50 AM46 °FPassing clouds.15 mph82%29.98 "HgN/A
2:20 AM46 °FPassing clouds.14 mph82%29.98 "HgN/A
1:50 AM46 °FPartly cloudy.14 mph82%29.98 "HgN/A
1:20 AM46 °FPassing clouds.13 mph76%30.01 "HgN/A
12:50 AM46 °FPartly cloudy.13 mph76%30.01 "HgN/A
12:20 AM46 °FPartly cloudy.13 mph82%30.01 "HgN/A
11:50 PM
Fri, Feb 27
45 °FPartly cloudy.12 mph87%30.04 "HgN/A
11:20 PM45 °FPartly cloudy.10 mph87%30.04 "HgN/A
10:50 PM45 °FPassing clouds.9 mph76%30.07 "HgN/A
10:20 PM45 °FPartly cloudy.9 mph76%30.07 "HgN/A
9:50 PM45 °FPartly cloudy.8 mph76%30.09 "HgN/A
9:20 PM45 °FPassing clouds.8 mph76%30.09 "HgN/A
8:50 PM45 °FClear.7 mph76%30.09 "Hg10 mi
8:20 PM45 °FClear.7 mph76%30.09 "Hg10 mi
7:50 PM45 °FClear.7 mph76%30.09 "Hg10 mi
7:20 PM45 °FClear.7 mph76%30.12 "Hg10 mi
6:50 PM45 °FClear.7 mph76%30.12 "Hg10 mi
6:20 PM43 °FClear.6 mph76%30.12 "Hg10 mi
5:50 PM43 °FPassing clouds.8 mph76%30.12 "HgN/A
5:20 PM45 °FPassing clouds.8 mph66%30.12 "HgN/A
4:50 PM46 °FPassing clouds.10 mph62%30.12 "HgN/A
4:20 PM46 °FPassing clouds.13 mph62%30.12 "HgN/A
3:50 PM48 °FScattered clouds.14 mph62%30.12 "HgN/A
3:20 PM46 °FScattered clouds.13 mph66%30.12 "HgN/A
2:50 PM46 °FScattered clouds.8 mph66%30.12 "HgN/A
2:20 PM48 °FScattered clouds.9 mph50%30.15 "HgN/A
1:50 PM48 °FScattered clouds.8 mph54%30.15 "HgN/A
1:20 PM46 °FScattered clouds.7 mph53%30.15 "HgN/A
12:50 PM48 °FScattered clouds.12 mph54%30.15 "HgN/A
11:50 AM46 °FPassing clouds.10 mph62%30.18 "HgN/A
11:20 AM46 °FPassing clouds.9 mph62%30.18 "HgN/A
10:50 AM45 °FPassing clouds.12 mph71%30.18 "HgN/A
10:20 AM43 °FPassing clouds.9 mph76%30.18 "HgN/A
9:50 AM41 °FPassing clouds.9 mph81%30.15 "HgN/A
9:20 AM41 °FPassing clouds.8 mph81%30.15 "HgN/A
8:50 AM37 °FSunny.5 mph93%30.15 "Hg10 mi
8:20 AM34 °FSunny.1 mph93%30.15 "Hg10 mi
7:50 AM30 °FPassing clouds.6 mph93%30.15 "HgN/A
7:20 AM30 °FSunny.3 mph93%30.15 "Hg10 mi
6:50 AM30 °FClear.6 mph93%30.12 "Hg10 mi
6:20 AM27 °FClear.7 mph93%30.12 "Hg10 mi
Weather by CustomWeather, © 2015

See weather overviewHow to use our weather pages